Date String (YYYY-MM-DD hh:mm:ss) UTC,Instrument flags,absolute air pressure of the measurement (hPa),sample flow rate (lpm),inlet stack bypass flow (lpm),air temperature of the measurement (°C),ambient temperature measured by the external sensor (°C),aerosol sample conditioner tube jacket temperature (°C),OPC LED temperature (°C),internal box temperature (°C),relative humidity of the measurement (%),span deviation,mass concentration of particles derived from Lorenz-Mie calculation of OPC scattering (μg/m³),mass concentration of particles derived from Lorenz-Mie calculation of OPC scattering (μg/m³),mass concentration of particles derived from Lorenz-Mie calculation of OPC scattering (μg/m³)
DateTimeUTC,F1_M11,P_M11,Q1_M11,Q2_M11,T1_M11,T2_M11,T3_M11,T4_M11,T5_M11,U1_M11,ZSPAN_M11,X2_M11,X0_M11,X1_M11
2024-05-23 01:00:00,SystemResetWarning,0822.2,5.01,000.00,031.7,031.0,000.0,040.0,033.3,007.6,0000.0,0003.01,0006.18,0002.06
2024-05-23 01:01:00,SystemResetWarning,0822.3,5.01,000.00,031.7,031.0,000.0,040.0,033.3,007.8,0000.0,0003.00,0006.15,0002.05
2024-05-23 01:02:00,SystemResetWarning,0822.2,5.00,000.00,031.7,031.0,000.0,040.0,033.3,007.8,0000.0,0003.00,0006.98,0002.07
2024-05-23 01:03:00,SystemResetWarning,0822.2,5.00,000.00,031.7,031.0,000.0,040.0,033.3,007.9,0000.0,0003.01,0008.18,0002.07
2024-05-23 01:04:00,SystemResetWarning,0822.2,4.99,000.00,031.6,030.1,000.0,040.0,032.8,008.4,0000.0,0002.98,0008.34,0002.06
2024-05-23 01:05:00,SystemResetWarning,0822.0,5.00,000.00,031.2,027.5,000.0,040.0,031.4,008.3,0000.0,0002.95,0008.72,0002.05
2024-05-23 01:06:00,SystemResetWarning,0822.0,5.02,000.00,030.7,026.7,000.0,040.0,030.9,008.1,0000.0,0002.95,0008.70,0002.04
2024-05-23 01:07:00,SystemResetWarning,0821.9,5.01,000.00,030.5,027.0,000.0,039.8,031.0,008.2,0000.0,0002.95,0008.85,0002.04
2024-05-23 01:08:00,SystemResetWarning,0822.0,5.00,000.00,030.4,027.5,000.0,039.6,031.3,008.6,0000.0,0002.99,0009.44,0002.07
2024-05-23 01:09:00,SystemResetWarning,0822.0,5.00,000.00,030.4,027.9,000.0,039.4,031.6,008.6,0000.0,0003.01,0009.44,0002.07
2024-05-23 01:10:00,SystemResetWarning,0822.0,4.99,000.00,030.4,028.3,000.0,039.3,031.8,008.5,0000.0,0003.08,0009.57,0002.08
2024-05-23 01:11:00,SystemResetWarning,0822.1,5.00,000.00,030.4,028.6,000.0,039.3,031.9,008.2,0000.0,0003.07,0009.57,0002.08
2024-05-23 01:12:00,SystemResetWarning,0822.1,5.00,000.00,030.5,028.9,000.0,039.2,032.0,008.2,0000.0,0003.08,0009.52,0002.09
2024-05-23 01:13:00,SystemResetWarning,0822.1,5.00,000.00,030.5,029.2,000.0,039.2,032.1,008.5,0000.0,0003.09,0009.21,0002.09
2024-05-23 01:14:00,SystemResetWarning,0822.1,5.01,000.00,030.5,029.3,000.0,039.1,032.2,008.8,0000.0,0003.08,0008.47,0002.10
2024-05-23 01:15:00,SystemResetWarning,0822.1,5.00,000.00,030.6,029.5,000.0,039.1,032.2,009.0,0000.0,0003.12,0008.28,0002.11
2024-05-23 01:16:00,SystemResetWarning,0822.1,5.00,000.00,030.6,029.6,000.0,039.1,032.3,008.9,0000.0,0003.12,0007.76,0002.11
2024-05-23 01:17:00,SystemResetWarning,0822.1,5.00,000.00,030.7,029.8,000.0,039.1,032.3,009.0,0000.0,0003.11,0007.72,0002.10
2024-05-23 01:18:00,SystemResetWarning,0822.1,4.99,000.00,030.7,029.9,000.0,039.1,032.4,008.6,0000.0,0003.09,0007.39,0002.09
2024-05-23 01:19:00,SystemResetWarning,0822.0,5.01,000.00,030.7,029.9,000.0,039.1,032.4,008.0,0000.0,0003.08,0006.25,0002.09
2024-05-23 01:20:00,SystemResetWarning,0822.0,5.01,000.00,030.8,030.0,000.0,039.1,032.5,007.7,0000.0,0003.05,0006.44,0002.09
2024-05-23 01:21:00,SystemResetWarning,0821.9,5.00,000.00,030.8,030.1,000.0,039.1,032.5,007.7,0000.0,0002.98,0007.37,0002.09
2024-05-23 01:22:00,SystemResetWarning,0821.9,4.99,000.00,030.8,030.1,000.0,039.1,032.6,007.7,0000.0,0002.98,0007.40,0002.09
2024-05-23 01:23:00,SystemResetWarning,0822.0,4.99,000.00,030.9,030.2,000.0,039.1,032.6,007.9,0000.0,0003.06,0007.55,0002.09
2024-05-23 01:24:00,SystemResetWarning,0821.9,5.00,000.00,030.9,030.2,000.0,039.2,032.6,008.0,0000.0,0003.08,0007.51,0002.09
2024-05-23 01:25:00,SystemResetWarning,0822.0,5.01,000.00,030.9,030.3,000.0,039.2,032.6,008.2,0000.0,0003.05,0007.37,0002.08
2024-05-23 01:26:00,SystemResetWarning,0822.0,5.01,000.00,031.0,030.3,000.0,039.2,032.7,008.5,0000.0,0002.99,0007.63,0002.06
2024-05-23 01:27:00,SystemResetWarning,0822.0,5.00,000.00,031.0,030.4,000.0,039.2,032.7,008.1,0000.0,0003.03,0008.08,0002.06
2024-05-23 01:28:00,SystemResetWarning,0822.0,5.00,000.00,031.0,030.4,000.0,039.3,032.8,007.9,0000.0,0003.07,0008.31,0002.06
2024-05-23 01:29:00,SystemResetWarning,0822.0,4.99,000.00,031.1,030.5,000.0,039.3,032.8,007.9,0000.0,0003.11,0008.29,0002.07
2024-05-23 01:30:00,SystemResetWarning,0822.0,5.00,000.00,031.1,030.5,000.0,039.3,032.8,007.8,0000.0,0003.14,0008.28,0002.08
2024-05-23 01:31:00,SystemResetWarning,0822.1,5.00,000.00,031.1,030.5,000.0,039.3,032.8,007.7,0000.0,0003.15,0008.30,0002.07
2024-05-23 01:32:00,SystemResetWarning,0822.0,5.00,000.00,031.1,030.5,000.0,039.4,032.9,007.6,0000.0,0003.17,0007.74,0002.06
2024-05-23 01:33:00,SystemResetWarning,0822.0,5.00,000.00,031.2,030.6,000.0,039.4,032.9,007.5,0000.0,0003.19,0007.73,0002.07
2024-05-23 01:34:00,SystemResetWarning,0822.1,5.00,000.00,031.2,030.6,000.0,039.4,032.9,007.5,0000.0,0003.18,0007.91,0002.05
2024-05-23 01:35:00,SystemResetWarning,0822.1,4.99,000.00,031.2,030.6,000.0,039.4,032.9,007.5,0000.0,0003.18,0008.34,0002.06
2024-05-23 01:36:00,SystemResetWarning,0822.1,5.00,000.00,031.3,030.6,000.0,039.5,033.0,007.4,0000.0,0003.20,0008.66,0002.06
2024-05-23 01:37:00,SystemResetWarning,0822.1,4.99,000.00,031.2,029.5,000.0,039.5,032.3,007.4,0000.0,0003.20,0008.94,0002.07
2024-05-23 01:38:00,SystemResetWarning,0822.0,5.00,000.00,030.7,027.4,000.0,039.5,031.2,007.6,0000.0,0003.18,0008.56,0002.07
2024-05-23 01:39:00,SystemResetWarning,0821.9,5.02,000.00,030.4,027.3,000.0,039.5,031.0,007.7,0000.0,0003.17,0008.46,0002.06
2024-05-23 01:40:00,SystemResetWarning,0822.0,5.00,000.00,030.3,027.6,000.0,039.3,031.2,007.8,0000.0,0003.15,0008.54,0002.05
2024-05-23 01:41:00,SystemResetWarning,0822.0,4.98,000.00,030.3,028.0,000.0,039.2,031.5,007.8,0000.0,0003.10,0008.37,0002.04
2024-05-23 01:42:00,SystemResetWarning,0822.0,5.00,000.00,030.3,028.3,000.0,039.1,031.7,007.8,0000.0,0003.09,0008.23,0002.04
2024-05-23 01:43:00,SystemResetWarning,0822.1,5.02,000.00,030.3,028.6,000.0,039.0,031.8,007.8,0000.0,0003.07,0008.14,0002.03
2024-05-23 01:44:00,SystemResetWarning,0822.1,5.00,000.00,030.4,028.9,000.0,039.0,032.0,007.8,0000.0,0003.11,0008.46,0002.02
2024-05-23 01:45:00,SystemResetWarning,0822.1,5.01,000.00,030.4,029.1,000.0,039.0,032.0,007.8,0000.0,0003.04,0008.21,0002.02
2024-05-23 01:46:00,SystemResetWarning,0822.1,4.99,000.00,030.4,029.3,000.0,038.9,032.1,007.8,0000.0,0003.05,0007.67,0002.01
2024-05-23 01:47:00,SystemResetWarning,0822.2,4.99,000.00,030.5,029.5,000.0,038.9,032.2,007.8,0000.0,0003.03,0007.25,0002.01
2024-05-23 01:48:00,SystemResetWarning,0822.1,5.01,000.00,030.5,029.6,000.0,038.9,032.2,007.7,0000.0,0003.07,0006.40,0002.01
2024-05-23 01:49:00,SystemResetWarning,0822.1,5.00,000.00,030.6,029.7,000.0,038.9,032.3,007.7,0000.0,0003.11,0006.08,0002.03
2024-05-23 01:50:00,SystemResetWarning,0822.2,5.01,000.00,030.6,029.8,000.0,038.9,032.3,007.6,0000.0,0003.10,0006.12,0002.03
2024-05-23 01:51:00,SystemResetWarning,0822.2,5.00,000.00,030.6,029.9,000.0,039.0,032.4,007.6,0000.0,0003.06,0005.88,0002.03
2024-05-23 01:52:00,SystemResetWarning,0822.2,5.00,000.00,030.7,030.0,000.0,039.0,032.4,007.6,0000.0,0003.11,0007.24,0002.01
2024-05-23 01:53:00,SystemResetWarning,0822.2,5.00,000.00,030.7,030.1,000.0,039.0,032.5,007.6,0000.0,0003.09,0007.70,0002.01
2024-05-23 01:54:00,SystemResetWarning,0822.2,4.99,000.00,030.8,030.1,000.0,039.0,032.5,007.6,0000.0,0003.10,0007.69,0002.02
2024-05-23 01:55:00,SystemResetWarning,0822.2,4.99,000.00,030.8,030.2,000.0,039.0,032.5,007.5,0000.0,0003.05,0007.52,0002.03
2024-05-23 01:56:00,SystemResetWarning,0822.2,5.00,000.00,030.8,030.2,000.0,039.1,032.6,007.5,0000.0,0003.09,0007.44,0002.03
2024-05-23 01:57:00,SystemResetWarning,0822.2,5.01,000.00,030.9,030.3,000.0,039.1,032.6,007.5,0000.0,0003.06,0007.49,0002.04
2024-05-23 01:58:00,SystemResetWarning,0822.3,4.99,000.00,030.9,030.3,000.0,039.1,032.6,007.5,0000.0,0003.01,0007.50,0002.03
2024-05-23 01:59:00,SystemResetWarning,0822.3,4.99,000.00,030.9,030.3,000.0,039.1,032.7,007.5,0000.0,0002.95,0007.52,0002.03
